12P/Pons-Brooks (2024)

Japanese version
Home page
Updated on May 15, 2021

---------------------------------------------------------------------

* Profile

* Orbital Elements

                    Epoch = 2024 May  10.0 TT
     T = 2024 Apr. 21.00504 TT        Peri. = 198.98782
     e = 0.9545989                    Node  = 255.85602 2000.0
     q = 0.7807733 AU                 Incl. =  74.19143
       a = 17.1972223 AU   n = 0.01382027   P =  71.32 years

* Finding Charts

* Magnitudes Graph

        m1 = 4.5 + 5 log d + 12.5 log r

---------------------------------------------------------------------

The orbital elements are printed on CBET 4805.
The charts are made with StellaNavigator Ver.10 (AstroArts).
The magnitudes graphs are made with Comet for Windows.

---------------------------------------------------------------------

Copyright(C) Seiichi Yoshida (comet@aerith.net). All rights reserved.